CZ-3C DEB, 44526

Orbit data source: Space-Track

CZ-3C DEB, 44526 is space debris in HEO originally from a launch on Sun, 31 Oct 2010 UTC launched from the Xichang Space Center, China (XSC). Debris objects in space refer to the collection of defunct objects orbiting the Earth. Examples of debris include non-operational satellites, rocket bodies, and fragments generated from explosions, collisions, or faulty payload assembly.

Loading next visibility...
Identifier
44526, 2010-057BL
Orbit
HEO
Country
Flag of CNCN / PRC
Related business
Manufacturer
CALT
Mission
Spacecraft
Bus & Motor
Unknown
Mass
Unknown
Launch date (UTC)
2010-10-31 (15 years ago)
Launch vehicle
Unknown
Launch site
Xichang Space Center, China (XSC)
Object type
Payload
Rocket body
Debris
Shape & HBR
Unknown shape, 0.1 m
Radar Cross Section
Medium (>0.1 m² and <1 m²)

Expand to show TLE details & history
Last TLE update: 4 months ago

TLE from 4 months ago
0 CZ-3C DEB
1 44526U 10057BL  25348.94118097  .00000166  00000-0  89110-3 0  9990
2 44526  21.4546 161.4389 6980678 192.6332 130.9564  2.49206901 91660
Epoch: 2025-12-14T22:35Z
TLE epoch observation values (Epoch: 2025-12-14T22:35:18.035Z)
Latitude
0.00001°
Longitude
98.73243°
Altitude
30,554.982 km
Speed
2.059 km/s
True Right ascension
10h 45m 37s
True Declination
0° 00' 00"
Sunlit
Object was in daylight at epoch
Visualization orbit readout
Latitude
Unknown
Longitude
Unknown
Altitude
Unknown
Speed
Unknown
Apparent Right ascension
Unknown
Apparent Declination
Unknown
Sunlit
N/A
Visualization observer readout
Local Sidereal Time
01:53:07
Azimuth
Unknown
Elevation
Unknown
Doppler factor
Unknown
Orbital elements
Apogee altitude
32,651.63 km
Perigee altitude
561.717 km
Semi-major axis
22,984.81 km
Eccentricity
0.69807
Inclination
21.4546°
RAAN
161.4389°
Arg. of periapsis
192.6332°
True anomaly
167.37217°
Mean anomaly
130.9564°
Eccentric anomaly
150.59425°
Mean motion
0.62285 °/min
Orbital period
577.99 mins
BSTAR
0.0008911
Loading maneuver chart data...
Computing Atmospheric mass density...
Loading historical data...
Loading historical data...
Loading historical data...
Loading historical data...
Loading historical data...
Loading historical data...
Loading historical data...

Documentation

Showing up to 5 results
|